EW5637 Weather Reports


Display with metric or nautical units.
time (UTC)temp
F
wind
direction
speed
MPH
gust
MPH
rain 1hr
in
rain 24hr
in
rain mn
in
humidity
%
barometer
mb
20260903180542 82 0 3.0 9.0 0.00 0.42 0.42 74 1015.7
20260903180051 82 0 3.0 7.0 0.00 0.42 0.42 72 1015.7
20260903175542 82 155 1.0 11.0 0.00 0.45 0.42 77 1015.7
20260903175042 80 211 3.0 11.0 0.00 0.45 0.42 75 1015.9
20260903174558 79 282 2.0 9.0 0.00 0.45 0.42 77 1015.8
20260903174040 79 121 2.0 9.0 0.00 0.45 0.42 78 1015.8
20260903173542 79 138 4.0 9.0 0.00 0.45 0.42 79 1016.0
20260903173058 79 128 2.0 8.0 0.00 0.45 0.42 78 1016.2
20260903172543 79 159 2.0 8.0 0.00 0.45 0.42 78 1016.1
20260903172043 79 121 4.0 8.0 0.00 0.45 0.42 79 1016.2
20260903171603 79 153 3.0 8.0 0.00 0.45 0.42 78 1016.1
20260903171043 79 0 2.0 8.0 0.00 0.45 0.42 81 1016.2
20260903170542 78 0 1.0 9.0 0.00 0.45 0.42 81 1016.4
20260903170059 78 161 4.0 9.0 0.00 0.45 0.42 80 1016.4
20260903165542 78 210 4.0 7.0 0.00 0.71 0.42 80 1016.5
20260903165045 78 142 3.0 9.0 0.00 0.71 0.42 82 1016.7
20260903164602 78 0 3.0 9.0 0.00 0.71 0.42 82 1016.7
20260903164043 78 0 1.0 6.0 0.00 0.71 0.42 80 1016.7
20260903163543 78 0 0.0 3.0 0.00 0.71 0.42 85 1016.8
20260903163101 77 0 0.0 6.0 0.00 0.71 0.42 84 1016.7
20260903162542 77 0 2.0 6.0 0.00 0.71 0.42 84 1016.7
20260903162044 77 0 0.0 5.0 0.00 0.71 0.42 84 1016.8
20260903161606 77 146 0.0 7.0 0.00 0.71 0.42 87 1016.8
20260903161042 76 119 3.0 7.0 0.00 0.71 0.42 87 1017.1
20260903160540 76 136 1.0 6.0 0.00 0.71 0.42 89 1017.1
20260903155546 74 0 0.0 6.0 0.00 0.71 0.42 91 1017.5
20260903155042 73 295 1.0 7.0 0.01 0.71 0.42 90 1017.7
20260903154556 73 234 1.0 7.0 0.02 0.71 0.42 91 1017.7
20260903154042 73 0 1.0 7.0 0.02 0.71 0.42 92 1017.8
20260903153541 73 0 1.0 6.0 0.04 0.71 0.42 93 1017.7
20260903153105 72 227 1.0 6.0 0.06 0.71 0.42 92 1017.5
20260903152543 72 0 0.0 2.0 0.10 0.71 0.42 93 1017.5
20260903152042 71 0 0.0 6.0 0.12 0.71 0.42 93 1017.4
20260903151556 71 68 0.0 6.0 0.12 0.71 0.42 92 1017.3
20260903151042 71 64 4.0 8.0 0.12 0.71 0.42 92 1017.4
20260903150542 71 74 0.0 8.0 0.12 0.71 0.42 91 1017.1
20260903150113 71 199 3.0 12.0 0.12 0.71 0.42 91 1017.6
20260903145542 71 0 3.0 12.0 0.12 0.71 0.42 91 1018.0
20260903145042 71 142 6.0 12.0 0.11 0.70 0.41 91 1018.1
20260903144606 71 137 4.0 8.0 0.10 0.69 0.40 90 1018.8
20260903144041 72 0 2.0 14.0 0.10 0.69 0.40 89 1019.2
20260903143541 72 0 2.0 14.0 0.08 0.67 0.38 88 1019.2
20260903143058 73 320 3.0 23.0 0.06 0.65 0.36 88 1019.3
20260903142542 73 315 9.0 26.0 0.02 0.61 0.32 87 1019.4
20260903142042 73 296 14.0 27.0 0.00 0.58 0.30 87 1019.4
20260903141556 74 296 19.0 27.0 0.00 0.58 0.30 87 1019.5
20260903141042 75 302 2.0 9.0 0.00 0.58 0.30 88 1018.4
20260903140832 75 0 2.0 4.0 0.00 0.58 0.30 87 1017.5
20260903140201 75 240 1.0 6.0 0.00 0.58 0.30 85 1017.3
20260903135542 76 238 1.0 7.0 0.00 0.58 0.30 84 1017.3
20260903135042 76 183 2.0 9.0 0.00 0.58 0.30 84 1017.2
20260903134616 76 205 2.0 9.0 0.00 0.58 0.30 85 1017.0
20260903134042 76 196 2.0 8.0 0.00 0.58 0.30 85 1017.0
20260903133544 76 155 0.0 5.0 0.00 0.58 0.30 88 1017.1
20260903133101 75 0 0.0 5.0 0.00 0.58 0.30 91 1017.0
20260903132541 75 169 1.0 5.0 0.00 0.58 0.30 92 1017.0
20260903132042 74 145 1.0 5.0 0.00 0.58 0.30 92 1017.1
20260903131605 73 188 2.0 5.0 0.00 0.58 0.30 93 1017.2
20260903131041 73 204 1.0 4.0 0.00 0.58 0.30 94 1017.2
20260903130543 73 188 1.0 5.0 0.00 0.58 0.30 95 1017.2
20260903130105 72 196 0.0 5.0 0.00 0.58 0.30 95 1017.3
20260903125542 72 208 0.0 6.0 0.01 0.58 0.30 96 1017.5
20260903125042 72 207 1.0 6.0 0.01 0.58 0.30 96 1017.3
20260903124600 71 191 0.0 2.0 0.01 0.58 0.30 96 1017.5
20260903124042 71 0 0.0 2.0 0.01 0.58 0.30 96 1017.5
20260903123544 71 0 0.0 5.0 0.01 0.58 0.30 96 1017.5
20260903123103 70 0 0.0 5.0 0.01 0.58 0.30 96 1017.3
20260903122542 70 0 1.0 4.0 0.01 0.58 0.30 96 1017.5
20260903122041 70 0 0.0 7.0 0.02 0.58 0.30 96 1017.4
20260903121601 69 220 1.0 7.0 0.02 0.58 0.30 96 1017.8
20260903121042 69 179 0.0 6.0 0.03 0.58 0.30 96 1017.7
20260903120542 69 0 0.0 6.0 0.04 0.58 0.30 96 1018.0
20260903120118 69 202 1.0 6.0 0.04 0.58 0.30 96 1018.0
20260903115542 69 209 1.0 4.0 0.04 0.58 0.29 96 1017.8
20260903115042 69 241 0.0 3.0 0.04 0.58 0.29 96 1018.0
20260903114553 69 242 0.0 4.0 0.04 0.58 0.29 96 1017.8
20260903114042 69 0 0.0 4.0 0.04 0.58 0.29 96 1018.0
20260903113541 69 213 0.0 5.0 0.04 0.58 0.29 96 1018.2
20260903113056 69 182 0.0 5.0 0.04 0.58 0.29 96 1018.1
20260903112543 69 176 1.0 5.0 0.04 0.58 0.29 96 1017.7
20260903112043 69 248 2.0 5.0 0.03 0.57 0.28 95 1018.2
20260903111554 69 157 0.0 5.0 0.03 0.57 0.28 95 1017.2
20260903111042 69 153 4.0 5.0 0.02 0.56 0.27 95 1017.9
20260903110540 68 0 0.0 3.0 0.01 0.55 0.26 95 1018.2
20260903110103 68 222 1.0 3.0 0.02 0.55 0.26 95 1018.8
20260903105544 69 0 0.0 4.0 0.01 0.54 0.25 95 1018.9
20260903105042 69 223 1.0 4.0 0.11 0.54 0.25 95 1019.3
20260903104614 69 215 1.0 3.0 0.13 0.54 0.25 95 1019.1
20260903104041 69 0 0.0 0.0 0.13 0.54 0.25 95 1018.8
20260903103544 69 0 0.0 2.0 0.15 0.54 0.25 95 1019.1
20260903103053 69 0 0.0 2.0 0.22 0.54 0.25 95 1019.1
20260903102543 69 0 0.0 2.0 0.25 0.54 0.25 95 1018.9
20260903102042 69 0 0.0 3.0 0.25 0.54 0.25 95 1018.9
20260903101552 69 0 0.0 4.0 0.25 0.54 0.25 95 1018.4
20260903101042 69 40 2.0 8.0 0.25 0.54 0.25 95 1018.4
20260903100542 69 302 3.0 8.0 0.25 0.54 0.25 95 1018.5
20260903100056 69 281 1.0 9.0 0.24 0.52 0.24 95 1018.9
20260903095541 69 65 5.0 9.0 0.24 0.52 0.24 95 1018.4
20260903095042 69 5 7.0 9.0 0.13 0.42 0.13 95 1019.3
20260903094604 69 329 3.0 10.0 0.12 0.41 0.12 95 1019.2
20260903094043 69 25 4.0 10.0 0.12 0.41 0.12 95 1018.7
20260903093543 69 23 6.0 15.0 0.09 0.38 0.09 95 1018.7
20260903093052 69 351 6.0 16.0 0.03 0.32 0.03 95 1018.9
20260903092545 70 342 11.0 16.0 0.00 0.29 0.00 95 1018.8
20260903092042 70 342 7.0 12.0 0.00 0.29 0.00 95 1018.7
20260903091614 70 54 2.0 5.0 0.00 0.29 0.00 95 1018.0
20260903091043 70 0 3.0 5.0 0.00 0.29 0.00 95 1017.8
20260903090542 70 34 2.0 6.0 0.00 0.29 0.00 95 1017.7
20260903090058 70 5 3.0 8.0 0.00 0.29 0.00 95 1017.9
20260903085542 70 9 4.0 8.0 0.00 0.29 0.00 95 1018.3
20260903085042 70 348 2.0 7.0 0.00 0.29 0.00 95 1018.1
20260903084554 70 63 2.0 8.0 0.00 0.29 0.00 95 1018.1
20260903084043 70 0 2.0 8.0 0.00 0.29 0.00 95 1018.0
20260903083546 70 59 4.0 8.0 0.00 0.29 0.00 95 1018.0
20260903083049 71 38 3.0 6.0 0.00 0.29 0.00 95 1018.1
20260903082543 70 31 3.0 6.0 0.00 0.29 0.00 95 1018.2
20260903082041 71 57 1.0 6.0 0.00 0.29 0.00 95 1018.1
20260903081554 71 36 2.0 4.0 0.00 0.29 0.00 95 1018.1
20260903081043 71 67 2.0 8.0 0.00 0.29 0.00 95 1018.3
20260903080542 71 21 2.0 15.0 0.00 0.29 0.00 95 1018.1
20260903080054 71 46 5.0 17.0 0.00 0.29 0.00 96 1017.8
20260903075543 70 344 13.0 17.0 0.00 0.29 0.00 95 1018.5
20260903075042 70 341 4.0 11.0 0.00 0.29 0.00 95 1017.8
20260903074555 70 0 0.0 1.0 0.00 0.29 0.00 95 1017.1
20260903074042 70 0 0.0 2.0 0.00 0.29 0.00 95 1017.1
20260903073543 70 0 0.0 2.0 0.00 0.29 0.00 95 1017.0
20260903073059 70 0 0.0 3.0 0.00 0.29 0.00 95 1017.1
20260903072542 70 0 0.0 3.0 0.00 0.29 0.00 95 1017.1
20260903072042 70 48 1.0 3.0 0.00 0.29 0.00 95 1017.0
20260903071554 70 0 0.0 1.0 0.00 0.29 0.00 95 1017.0
20260903071042 70 0 0.0 2.0 0.00 0.29 0.00 95 1017.1
20260903070542 70 0 0.0 2.0 0.00 0.29 0.00 95 1017.1
20260903070056 70 0 0.0 0.0 0.00 0.29 0.00 95 1017.2
20260903065544 70 0 0.0 1.0 0.00 0.29 0.00 95 1017.3
20260903065041 70 0 0.0 1.0 0.00 0.29 0.00 95 1017.4
20260903064559 70 0 0.0 1.0 0.00 0.29 0.00 95 1017.2
20260903064042 70 0 0.0 1.0 0.00 0.29 0.00 95 1017.3
20260903063542 70 0 0.0 0.0 0.00 0.29 0.00 95 1017.3
20260903063106 70 0 0.0 0.0 0.00 0.29 0.00 95 1017.2
20260903062541 70 0 0.0 2.0 0.00 0.29 0.00 95 1017.4
20260903062043 70 0 0.0 3.0 0.00 0.29 0.00 95 1017.3
20260903061556 70 0 0.0 4.0 0.00 0.29 0.00 95 1017.5
20260903061042 70 42 2.0 4.0 0.00 0.29 0.00 95 1017.6
20260903060542 70 51 1.0 5.0 0.00 0.29 0.00 95 1017.5
20260903055543 70 54 2.0 6.0 0.00 0.29 0.00 95 1017.4
20260903055042 70 36 1.0 6.0 0.00 0.29 0.00 95 1017.4
20260903054551 70 0 2.0 5.0 0.00 0.29 0.00 95 1017.5
20260903054042 70 51 3.0 5.0 0.00 0.29 0.00 95 1017.4
20260903053545 70 62 3.0 5.0 0.00 0.29 0.00 95 1017.2
20260903053113 70 17 2.0 4.0 0.00 0.29 0.00 95 1017.2
20260903052542 70 0 0.0 0.0 0.00 0.29 0.00 95 1017.1
20260903052042 70 0 0.0 0.0 0.00 0.29 0.00 96 1017.0
20260903051558 70 0 0.0 3.0 0.00 0.29 0.00 95 1017.1
20260903051042 70 0 0.0 3.0 0.00 0.29 0.00 95 1017.0
20260903050545 70 225 1.0 3.0 0.00 0.29 0.00 95 1017.1
20260903050105 70 225 0.0 2.0 0.00 0.29 0.00 95 1017.2
20260903045543 70 0 0.0 3.0 0.00 0.29 0.00 95 1017.4
20260903045042 70 0 0.0 3.0 0.00 0.29 0.00 95 1017.4
20260903044600 70 0 0.0 3.0 0.00 0.29 0.00 95 1017.5
20260903044042 70 225 0.0 3.0 0.00 0.29 0.00 95 1017.3
20260903043543 70 225 1.0 3.0 0.00 0.29 0.00 95 1017.2
20260903043108 70 226 1.0 2.0 0.00 0.29 0.00 95 1017.3
20260903042542 70 0 0.0 2.0 0.00 0.29 0.00 95 1017.3
20260903042044 70 227 0.0 2.0 0.00 0.29 0.00 95 1017.5
20260903041558 70 227 0.0 2.0 0.00 0.29 0.00 95 1017.7
20260903041045 70 0 0.0 3.0 0.00 0.29 0.00 95 1017.9
20260903040544 70 0 0.0 4.0 0.00 0.29 0.00 95 1017.6
20260903040058 70 226 0.0 4.0 0.00 0.29 0.00 96 1017.6
20260903035542 70 0 1.0 2.0 0.00 0.29 0.29 96 1017.8
20260903035042 70 0 0.0 0.0 0.00 0.29 0.29 96 1017.6
20260903034611 70 0 0.0 0.0 0.00 0.29 0.29 95 1017.7
20260903034043 70 0 0.0 0.0 0.00 0.29 0.29 95 1017.9
20260903033542 70 0 0.0 0.0 0.00 0.29 0.29 96 1017.9
20260903033101 70 0 0.0 0.0 0.00 0.29 0.29 96 1017.8
20260903032542 70 0 0.0 0.0 0.00 0.29 0.29 95 1018.0
20260903032041 70 0 0.0 0.0 0.00 0.29 0.29 95 1018.1
20260903031611 70 0 0.0 0.0 0.00 0.29 0.29 95 1018.1
20260903031041 70 0 0.0 0.0 0.00 0.29 0.29 95 1017.9
20260903030543 70 0 0.0 0.0 0.00 0.29 0.29 95 1017.9
20260903030054 70 0 0.0 0.0 0.00 0.29 0.29 95 1017.9
20260903025543 69 0 0.0 2.0 0.00 0.29 0.29 95 1017.9
20260903025040 69 0 0.0 3.0 0.00 0.29 0.29 94 1018.0
20260903024551 69 0 0.0 3.0 0.00 0.29 0.29 94 1017.9
20260903024041 69 317 2.0 3.0 0.00 0.29 0.29 94 1017.8
20260903023540 69 206 0.0 1.0 0.00 0.29 0.29 94 1017.5
20260903023102 69 0 0.0 1.0 0.00 0.29 0.29 94 1017.5
20260903022540 69 0 0.0 0.0 0.00 0.29 0.29 94 1017.6
20260903022040 70 0 0.0 0.0 0.00 0.29 0.29 93 1017.6
20260903021557 70 0 0.0 2.0 0.00 0.29 0.29 94 1017.6
20260903021038 70 0 0.0 2.0 0.00 0.29 0.29 94 1017.6
20260903020540 70 206 0.0 2.0 0.00 0.29 0.29 94 1017.4
20260903020054 70 0 0.0 1.0 0.00 0.29 0.29 94 1017.3
20260903015537 70 0 0.0 0.0 0.00 0.29 0.29 94 1017.6
20260903015037 70 0 0.0 3.0 0.00 0.29 0.29 94 1017.7
20260903014559 70 0 0.0 3.0 0.00 0.29 0.29 93 1018.0
20260903014040 70 0 1.0 3.0 0.00 0.29 0.29 93 1018.0
20260903013537 70 206 1.0 3.0 0.00 0.29 0.29 93 1017.9
20260903013100 70 205 0.0 2.0 0.00 0.29 0.29 93 1018.0
20260903012537 70 0 0.0 2.0 0.00 0.29 0.29 92 1017.9
20260903012040 70 204 0.0 2.0 0.00 0.29 0.29 92 1017.8
20260903011602 71 0 0.0 0.0 0.00 0.29 0.29 92 1017.6
20260903011038 71 0 0.0 3.0 0.00 0.29 0.29 93 1017.7
20260903010537 71 0 0.0 3.0 0.00 0.29 0.29 93 1017.6
20260903010051 71 205 2.0 3.0 0.00 0.29 0.29 92 1017.6
20260903005537 71 188 0.0 0.0 0.00 0.29 0.29 91 1017.2
20260903005037 72 0 0.0 0.0 0.00 0.29 0.29 91 1017.0
20260903004603 72 0 0.0 1.0 0.00 0.29 0.29 91 1017.1
20260903004040 72 0 0.0 1.0 0.00 0.29 0.29 91 1017.2
20260903003540 72 0 0.0 1.0 0.00 0.29 0.29 91 1017.3
20260903003056 72 0 0.0 3.0 0.00 0.29 0.29 91 1017.4
20260903002541 73 0 0.0 3.0 0.00 0.29 0.29 91 1017.5
20260903002041 73 186 1.0 3.0 0.00 0.29 0.29 90 1017.5
20260903001555 73 0 0.0 2.0 0.00 0.29 0.29 90 1017.6
20260903001050 73 0 0.0 2.0 0.00 0.29 0.29 90 1017.6
20260903000541 74 0 0.0 2.0 0.00 0.29 0.29 90 1017.7
20260903000057 74 187 0.0 1.0 0.00 0.29 0.29 90 1017.7
20260902235540 74 0 0.0 1.0 0.00 0.29 0.29 90 1017.4
20260902235131 74 0 0.0 1.0 0.00 0.29 0.29 90 1017.4
20260902234550 74 0 0.0 0.0 0.00 0.29 0.29 89 1017.4
20260902234042 74 0 0.0 0.0 0.00 0.29 0.29 89 1017.7
20260902233540 75 0 0.0 1.0 0.00 0.29 0.29 88 1017.7
20260902233053 75 0 0.0 1.0 0.00 0.29 0.29 88 1017.7
20260902232541 75 0 0.0 1.0 0.00 0.29 0.29 87 1017.7
20260902232040 75 0 0.0 2.0 0.00 0.29 0.29 87 1017.8
20260902231555 76 0 0.0 3.0 0.00 0.29 0.29 87 1017.9
20260902231042 76 0 0.0 5.0 0.00 0.29 0.29 86 1017.8
20260902230542 76 182 1.0 5.0 0.00 0.29 0.29 86 1017.4
20260902230107 76 184 0.0 3.0 0.00 0.29 0.29 85 1017.7
20260902225542 77 0 0.0 4.0 0.00 0.29 0.29 85 1017.6
20260902225044 77 0 1.0 4.0 0.00 0.29 0.29 84 1017.7
20260902224554 77 0 0.0 5.0 0.00 0.29 0.29 83 1017.5
20260902224043 77 184 1.0 5.0 0.00 0.29 0.29 83 1017.3
20260902223542 77 172 1.0 5.0 0.00 0.29 0.29 83 1017.3
20260902223059 78 0 0.0 5.0 0.00 0.29 0.29 83 1017.5
20260902222544 78 0 0.0 5.0 0.00 0.29 0.29 83 1017.4
20260902222042 78 155 0.0 7.0 0.00 0.29 0.29 82 1017.6
20260902221556 79 149 2.0 7.0 0.00 0.29 0.29 81 1017.4
20260902221044 79 153 3.0 7.0 0.00 0.29 0.29 80 1017.4
20260902220542 80 146 3.0 8.0 0.00 0.29 0.29 79 1017.6
20260902220100 80 109 1.0 8.0 0.00 0.29 0.29 79 1017.6
20260902215542 80 140 3.0 8.0 0.00 0.29 0.29 78 1017.7
20260902215042 80 140 2.0 8.0 0.00 0.29 0.29 78 1017.7
20260902214606 81 149 3.0 7.0 0.00 0.29 0.29 78 1017.8
20260902214042 81 167 2.0 5.0 0.00 0.29 0.29 78 1017.8
20260902213544 81 0 0.0 3.0 0.00 0.29 0.29 77 1017.7
20260902213058 81 178 1.0 4.0 0.00 0.29 0.29 77 1017.8
20260902212542 81 0 0.0 4.0 0.00 0.29 0.29 77 1017.6
20260902212042 81 177 0.0 5.0 0.00 0.29 0.29 77 1017.6
20260902211610 80 0 1.0 5.0 0.00 0.29 0.29 77 1017.6
20260902211042 80 192 1.0 5.0 0.00 0.29 0.29 77 1017.8
20260902210540 80 153 1.0 5.0 0.00 0.29 0.29 79 1017.8
20260902210119 80 192 1.0 5.0 0.00 0.29 0.29 78 1017.9
20260902205542 79 200 2.0 5.0 0.00 0.29 0.29 77 1018.0
20260902205043 79 145 1.0 3.0 0.00 0.29 0.29 78 1018.0
20260902204551 79 145 0.0 3.0 0.00 0.29 0.29 79 1018.1
20260902204042 79 0 0.0 4.0 0.00 0.29 0.29 80 1018.2
20260902203542 79 0 1.0 6.0 0.00 0.29 0.29 79 1018.2
20260902203057 79 123 2.0 6.0 0.00 0.29 0.29 80 1018.4
20260902202542 79 155 0.0 7.0 0.00 0.29 0.29 81 1018.5
20260902202042 79 115 1.0 7.0 0.00 0.29 0.29 81 1018.4
20260902201608 79 126 1.0 6.0 0.00 0.29 0.29 81 1018.5
20260902201042 79 130 2.0 6.0 0.00 0.29 0.29 82 1018.6
20260902200546 78 145 0.0 3.0 0.00 0.29 0.29 81 1018.4
20260902200053 78 259 2.0 3.0 0.00 0.29 0.29 80 1018.2
20260902195541 78 264 1.0 3.0 0.00 0.29 0.29 81 1018.1
20260902195042 77 0 0.0 3.0 0.00 0.29 0.29 82 1017.9
20260902194601 77 9 1.0 3.0 0.00 0.29 0.29 83 1017.8
20260902194045 77 0 0.0 3.0 0.00 0.29 0.29 83 1017.8
20260902193542 77 0 0.0 5.0 0.00 0.29 0.29 83 1017.9
20260902193058 76 238 1.0 6.0 0.00 0.29 0.29 84 1017.9
20260902192541 76 206 2.0 6.0 0.00 0.29 0.29 84 1018.0
20260902192042 76 237 2.0 7.0 0.00 0.29 0.29 86 1018.2
20260902191603 76 0 3.0 7.0 0.00 0.29 0.29 86 1018.3
20260902191042 75 0 3.0 6.0 0.00 0.29 0.29 88 1018.4
20260902190543 75 0 2.0 7.0 0.00 0.29 0.29 89 1018.5
20260902190106 74 135 2.0 8.0 0.00 0.29 0.29 89 1018.5
20260902185542 74 198 3.0 8.0 0.00 0.29 0.29 90 1018.6
20260902185042 73 185 2.0 7.0 0.00 0.29 0.29 92 1018.7
20260902184601 73 190 3.0 7.0 0.00 0.29 0.29 92 1018.9
20260902184047 73 244 2.0 6.0 0.00 0.29 0.29 94 1018.8
20260902183548 72 236 3.0 5.0 0.01 0.29 0.29 94 1018.9
20260902183101 72 197 2.0 5.0 0.01 0.29 0.29 94 1018.9
20260902182544 71 177 1.0 3.0 0.01 0.29 0.29 94 1019.1
20260902182045 71 135 1.0 3.0 0.02 0.29 0.29 93 1019.0
20260902181605 71 136 1.0 7.0 0.02 0.29 0.29 94 1018.9
20260902181043 71 136 2.0 8.0 0.02 0.29 0.29 94 1019.0